Fairbanks Eiels, AK

7:26 AM AKDT on August 17, 2018 (GMT -0800)
Eielson Air Force Base

Weather History for PAEI - February, 2018

Change the Weather History Date:

Tuesday, February 13, 2018

  Actual Average Record
Temperature  
Mean Temperature 26 °F -  
Max Temperature 28 °F 5 °F 38 °F (2012)
Min Temperature 23 °F -13 °F -56 °F (1950)
Degree Days  
Heating Degree Days 40    
Moisture  
Dew Point 25 °F    
Average Humidity 95    
Maximum Humidity 100    
Minimum Humidity 84    
Precipitation  
Precipitation 0.17 in - - ()
Snow  
Snow 0.00 in - - ()
Snow Depth 20.00 in    
Sea Level Pressure  
Sea Level Pressure 29.98 in    
Wind  
Wind Speed 7 mph (WSW)    
Max Wind Speed 13 mph    
Max Gust Speed 28 mph    
Visibility 5 miles    
Events Snow    
Averages and records for this station are not official NWS values.
T = Trace of Precipitation, MM = Missing Value Source: NWS Daily Summary

Daily Weather History Graph

Daily Weather History Graph

Search for Another Location

Airport or City:

Astronomy

Feb. 13, 2018 Rise Set
Actual Time 8:52 AM AKST 5:14 PM AKST
Civil Twilight 7:59 AM AKST 6:07 PM AKST
Nautical Twilight 7:01 AM AKST 7:04 PM AKST
Astronomical Twilight 6:05 AM AKST 8:01 PM AKST
Moon 8:28 AM AKST (2/13) 2:40 PM AKST (2/13)
Length of Visible Light 10h 07m
Length of Day
8h 21m
Waning Crescent, 4% of the Moon is Illuminated
Feb 13
Waning Crescent
Feb 15
New
Feb 22
First Quarter
Mar 1
Full
Mar 9
Last Quarter

Hourly Weather History & Observations

Time (AKST) Temp. Windchill Dew Point Humidity Pressure Visibility Wind Dir Wind Speed Gust Speed Precip Events Conditions
12:11 AM 24.8 °F 16.1 °F 24.8 °F 100% 29.70 in 1.8 mi West 8.1 mph - N/A Snow Light Snow
12:26 AM 24.8 °F 17.9 °F 24.8 °F 100% 29.70 in 1.4 mi West 5.8 mph - N/A Snow Light Snow
12:41 AM 24.8 °F 20.5 °F 24.8 °F 100% 29.72 in 2.0 mi West 3.5 mph - N/A Snow Light Snow
12:56 AM 25.7 °F 18.0 °F 25.2 °F 98% 29.72 in 1.5 mi West 6.9 mph - 0.00 in Snow Light Snow
1:11 AM 26.6 °F 18.2 °F 24.8 °F 93% 29.73 in 1.8 mi West 8.1 mph - N/A Snow Light Snow
1:26 AM 26.6 °F 18.2 °F 24.8 °F 93% 29.74 in 2.0 mi West 8.1 mph - N/A Snow Light Snow
1:41 AM 26.6 °F 17.5 °F 24.8 °F 93% 29.75 in 1.1 mi WNW 9.2 mph - N/A Snow Light Snow
1:56 AM 26.1 °F 17.6 °F 25.3 °F 97% 29.75 in 1.1 mi West 8.1 mph - 0.00 in Snow Light Snow
2:11 AM 26.6 °F 19.1 °F 24.8 °F 93% 29.75 in 1.4 mi West 6.9 mph - N/A Snow Light Snow
2:26 AM 26.6 °F 17.5 °F 24.8 °F 93% 29.77 in 0.9 mi West 9.2 mph - N/A Snow Light Snow
2:56 AM 26.4 °F 18.9 °F 25.7 °F 97% 29.79 in 0.9 mi West 6.9 mph - 0.00 in Snow Light Snow
3:11 AM 26.6 °F 16.8 °F 26.6 °F 100% 29.80 in 1.2 mi West 10.4 mph - N/A Snow Light Snow
3:26 AM 26.6 °F 16.8 °F 26.6 °F 100% 29.81 in 0.8 mi West 10.4 mph - N/A Snow Light Snow
3:41 AM 26.6 °F 19.1 °F 26.6 °F 100% 29.81 in 1.0 mi West 6.9 mph - N/A Snow Light Snow
3:56 AM 26.8 °F 19.3 °F 26.2 °F 98% 29.82 in 1.1 mi West 6.9 mph - 0.00 in Snow Light Snow
4:11 AM 26.6 °F 17.5 °F 26.6 °F 100% 29.83 in 1.0 mi West 9.2 mph - N/A Snow Light Snow
4:26 AM 26.6 °F 17.5 °F 26.6 °F 100% 29.83 in 0.9 mi West 9.2 mph - N/A Snow Light Snow
4:56 AM 27.1 °F 18.2 °F 26.4 °F 97% 29.85 in 1.5 mi West 9.2 mph - 0.00 in Snow Light Snow
5:11 AM 26.6 °F 18.2 °F 26.6 °F 100% 29.86 in 5.0 mi West 8.1 mph 18.4 mph N/A Snow Light Snow
5:26 AM 28.4 °F 19.1 °F 26.6 °F 93% 29.86 in 7.0 mi West 10.4 mph - N/A   Overcast
5:41 AM 28.4 °F 20.4 °F 26.6 °F 93% 29.87 in 6.0 mi West 8.1 mph - N/A   Overcast
5:56 AM 27.9 °F 19.8 °F 27.1 °F 97% 29.88 in 6.0 mi West 8.1 mph - 0.00 in   Overcast
6:26 AM 28.4 °F 19.7 °F 28.4 °F 100% 29.89 in 7.0 mi West 9.2 mph - N/A Snow Light Snow
6:56 AM 28.4 °F 21.2 °F 27.7 °F 97% 29.90 in - WSW 6.9 mph - 0.00 in Snow Light Snow
7:56 AM 28.8 °F 20.2 °F 28.2 °F 98% 29.89 in 1.5 mi SW 9.2 mph - 0.00 in Snow Light Snow
8:26 AM 28.4 °F 20.4 °F 28.4 °F 100% 29.91 in 0.8 mi WSW 8.1 mph 18.4 mph N/A Snow Light Snow
8:56 AM 28.6 °F 18.2 °F 28.0 °F 98% 29.93 in 0.8 mi SW 12.7 mph 19.6 mph 0.00 in Snow Light Snow
9:19 AM 28.4 °F 18.0 °F 28.4 °F 100% 29.94 in 0.2 mi WSW 12.7 mph 27.6 mph N/A Snow Snow
9:57 AM 28.0 °F 20.8 °F 27.5 °F 98% 29.97 in 0.8 mi WSW 6.9 mph 21.9 mph 0.00 in Snow Light Snow
10:11 AM 28.4 °F 18.0 °F 26.6 °F 93% 29.98 in 10.0 mi WSW 12.7 mph 20.7 mph N/A Snow Light Snow
10:29 AM 28.4 °F 19.1 °F 26.6 °F 93% 30.00 in 10.0 mi WSW 10.4 mph 20.7 mph N/A   Overcast
10:56 AM 28.0 °F 18.1 °F 25.2 °F 89% 30.02 in 10.0 mi West 11.5 mph 24.2 mph 0.00 in Snow Low Drifting Snow
11:41 AM 28.4 °F 18.5 °F 24.8 °F 86% 30.04 in 10.0 mi WSW 11.5 mph 25.3 mph N/A Snow Light Snow
11:56 AM 28.0 °F 18.1 °F 25.0 °F 88% 30.05 in 10.0 mi WSW 11.5 mph 24.2 mph 0.00 in Snow Light Snow
12:56 PM 28.0 °F 20.8 °F 25.0 °F 88% 30.09 in 10.0 mi West 6.9 mph 16.1 mph 0.00 in Snow Light Snow
1:56 PM 28.2 °F 20.2 °F 24.1 °F 84% 30.11 in 10.0 mi SSW 8.1 mph - 0.00 in   Overcast
2:56 PM 28.0 °F 21.7 °F 23.9 °F 84% 30.13 in 10.0 mi SW 5.8 mph - N/A   Overcast
3:56 PM 27.7 °F 21.3 °F 24.1 °F 86% 30.15 in 5.0 mi West 5.8 mph - N/A Snow Light Snow
4:27 PM 28.4 °F 21.2 °F 24.8 °F 86% 30.15 in 3.0 mi West 6.9 mph - N/A Snow Light Snow
4:40 PM 28.4 °F 22.2 °F 24.8 °F 86% 30.16 in 5.0 mi Variable 5.8 mph - N/A   Overcast
4:57 PM 27.1 °F 18.2 °F 24.6 °F 90% 30.16 in 2.0 mi West 9.2 mph - 0.00 in Snow Light Snow
5:11 PM 26.6 °F 22.6 °F 24.8 °F 93% 30.17 in 10.0 mi Variable 3.5 mph - N/A   Overcast
5:56 PM 26.6 °F - 24.8 °F 93% 30.18 in 10.0 mi Calm Calm - 0.00 in   Overcast
6:57 PM 24.3 °F - 23.0 °F 95% 30.24 in 10.0 mi Calm Calm - 0.00 in Snow Light Snow
7:28 PM 24.8 °F - 24.8 °F 100% 30.24 in 4.0 mi Calm Calm - N/A Snow Light Snow
7:56 PM 25.9 °F - 25.3 °F 98% 30.25 in 4.0 mi Calm Calm - 0.00 in Snow Light Snow
8:56 PM 25.2 °F - 24.6 °F 98% 30.26 in 10.0 mi Calm Calm - 0.00 in   Overcast
9:56 PM 24.1 °F 19.7 °F 23.5 °F 98% 30.27 in 10.0 mi South 3.5 mph - N/A   Overcast
10:55 PM 23.4 °F 16.2 °F 22.8 °F 98% 30.27 in 10.0 mi Variable 5.8 mph - N/A   Overcast
11:11 PM 23.0 °F 15.8 °F 23.0 °F 100% 30.28 in 10.0 mi South 5.8 mph - N/A   Overcast
11:26 PM 23.0 °F 15.8 °F 23.0 °F 100% 30.28 in 6.0 mi South 5.8 mph - N/A   Overcast
11:41 PM 23.0 °F 15.8 °F 23.0 °F 100% 30.28 in 10.0 mi South 5.8 mph - N/A   Partly Cloudy
11:56 PM 23.4 °F 14.3 °F 23.2 °F 99% 30.28 in 6.0 mi SSE 8.1 mph - 0.00 in   Partly Cloudy